Location: Ostrava
(49.8330°N, 18.2830°E)
Time: 23:47:21
(UTC+02:00)

Transit 2A - All Passes

Search period start: 27 May 2015 00:00
Search period end: 06 June 2015 00:00
Orbit: 593 x 968 km, 66.7° (Epoch: 27 May)

Date Brightness Start Highest point End Pass type
(mag) Time Alt. Az. Time Alt. Az. Time Alt. Az.
27 May - 00:13:49 10° SSW 00:20:11 73° ESE 00:26:27 10° NE visible
27 May - 01:58:14 10° WSW 02:04:03 35° NW 02:09:37 10° NNE visible
27 May - 03:45:08 10° NW 03:49:10 17° NNW 03:53:02 10° NNE visible
27 May - 05:30:53 10° NNW 05:34:48 17° NNE 05:38:35 10° NE daylight
27 May - 07:14:22 10° NNW 07:19:50 37° NE 07:24:49 10° ESE daylight
27 May - 08:57:48 10° NW 09:03:23 53° WSW 09:08:21 10° SSE daylight
27 May - 22:02:29 10° ESE 22:04:09 11° ESE 22:06:11 10° E visible
27 May - 23:40:12 10° SSW 23:46:24 56° ESE 23:52:33 10° NE visible
28 May - 01:23:57 10° WSW 01:30:00 42° NW 01:35:50 10° NNE visible
28 May - 03:10:34 10° WNW 03:14:56 19° NNW 03:19:03 10° NNE visible
28 May - 04:56:50 10° NNW 05:00:32 16° N 05:04:07 10° NE daylight
28 May - 06:40:35 10° NNW 06:45:46 31° NNE 06:50:33 10° E daylight
28 May - 08:23:53 10° NW 08:29:38 72° WSW 08:34:45 10° SSE daylight
28 May - 10:09:28 10° WNW 10:11:49 12° WSW 10:13:50 10° SW daylight
28 May - 23:06:45 10° S 23:12:41 43° ESE 23:18:35 10° NE visible
29 May - 00:49:45 10° WSW 00:56:00 52° NW 01:02:03 10° NNE visible
29 May - 02:36:00 10° WNW 02:40:42 21° NNW 02:45:10 10° NNE visible
29 May - 04:22:41 10° NNW 04:26:16 16° N 04:29:43 10° NE daylight
29 May - 06:06:46 10° NNW 06:11:38 26° NNE 06:16:12 10° E daylight
29 May - 07:50:01 10° NW 07:55:50 85° NE 08:01:00 10° SE daylight
29 May - 09:34:35 10° WNW 09:38:18 18° WSW 09:41:37 10° SW daylight
29 May - 22:33:31 10° S 22:39:00 32° ESE 22:44:31 10° NE visible
30 May - 00:15:41 10° SW 00:22:03 65° NW 00:28:15 10° NNE visible
30 May - 02:01:28 10° W 02:06:31 24° NNW 02:11:19 10° NNE visible
30 May - 03:48:25 10° NW 03:51:59 16° N 03:55:24 10° NE visible
30 May - 05:32:56 10° NNW 05:37:29 22° NNE 05:41:47 10° ENE daylight
30 May - 07:16:10 10° NNW 07:21:58 65° NE 07:27:07 10° SE daylight
30 May - 09:00:13 10° NW 09:04:43 25° WSW 09:08:47 10° SSW daylight
30 May - 22:00:29 10° SSE 22:05:21 24° ESE 22:10:19 10° ENE visible
30 May - 23:41:44 10° SW 23:48:10 82° NW 23:54:26 10° NE visible
31 May - 01:26:59 10° W 01:32:22 28° NNW 01:37:30 10° NNE visible
31 May - 03:14:01 10° NW 03:17:42 16° N 03:21:13 10° NNE visible
31 May - 04:59:03 10° NNW 05:03:17 20° NNE 05:07:18 10° ENE daylight
31 May - 06:42:21 10° NNW 06:48:00 50° NE 06:53:06 10° ESE daylight
31 May - 08:26:03 10° NW 08:31:06 34° WSW 08:35:39 10° S daylight
31 May - 21:27:49 10° SE 21:31:45 18° ESE 21:35:54 10° ENE visible
31 May - 23:07:56 10° SSW 23:14:20 79° ESE 23:20:35 10° NE visible
01 Jun - 00:52:33 10° W 00:58:16 33° NW 01:03:43 10° NNE visible
01 Jun - 02:39:32 10° NW 02:43:26 17° N 02:47:08 10° NNE visible
01 Jun - 04:25:07 10° NNW 04:29:03 18° NNE 04:32:49 10° ENE daylight
01 Jun - 06:08:33 10° NNW 06:14:00 40° NE 06:18:58 10° ESE daylight
01 Jun - 07:52:01 10° NW 07:57:26 48° WSW 08:02:17 10° S daylight
01 Jun - 20:55:48 10° SE 20:58:12 13° ESE 21:00:56 10° ENE daylight
01 Jun - 22:34:16 10° SSW 22:40:32 61° ESE 22:46:41 10° NE visible
02 Jun - 00:18:14 10° WSW 00:24:12 39° NW 00:29:55 10° NNE visible
02 Jun - 02:04:58 10° WNW 02:09:10 18° NNW 02:13:09 10° NNE visible
02 Jun - 03:51:07 10° NNW 03:54:47 16° N 03:58:20 10° NE visible
02 Jun - 05:34:45 10° NNW 05:39:57 32° NE 05:44:44 10° E daylight
02 Jun - 07:18:03 10° NW 07:23:43 66° WSW 07:28:44 10° SSE daylight
02 Jun - 09:04:23 10° W 09:05:49 11° W 09:06:55 10° WSW daylight
02 Jun - 22:00:46 10° S 22:06:47 46° ESE 22:12:44 10° NE visible
02 Jun - 23:44:01 10° WSW 23:50:11 48° NW 23:56:08 10° NNE visible
03 Jun - 01:30:24 10° WNW 01:34:57 20° NNW 01:39:15 10° NNE visible
03 Jun - 03:17:00 10° NNW 03:20:31 16° N 03:23:54 10° NE visible
03 Jun - 05:00:56 10° NNW 05:05:50 27° NNE 05:10:24 10° E daylight
03 Jun - 06:44:11 10° NW 06:49:55 88° WSW 06:55:02 10° SSE daylight
03 Jun - 08:29:00 10° WNW 08:32:18 16° WSW 08:35:13 10° SW daylight
03 Jun - 21:27:27 10° S 21:33:05 35° ESE 21:38:42 10° NE visible
03 Jun - 23:09:54 10° SW 23:16:14 61° NW 23:22:20 10° NNE visible
04 Jun - 00:55:51 10° WNW 01:00:45 23° NNW 01:05:23 10° NNE visible
04 Jun - 02:42:46 10° NW 02:46:14 15° N 02:49:34 10° NE visible
04 Jun - 04:27:07 10° NNW 04:31:41 23° NNE 04:35:59 10° ENE daylight
04 Jun - 06:10:19 10° NW 06:16:04 70° NE 06:21:11 10° SE daylight
04 Jun - 07:54:30 10° WNW 07:58:44 22° WSW 08:02:33 10° SSW daylight
04 Jun - 20:54:22 10° SSE 20:59:26 26° ESE 21:04:33 10° NE daylight
04 Jun - 22:35:55 10° SW 22:42:19 77° NW 22:48:32 10° NE visible
05 Jun - 00:21:19 10° W 00:26:35 26° NNW 00:31:34 10° NNE visible
05 Jun - 02:08:24 10° NW 02:11:57 15° N 02:15:20 10° NNE visible
05 Jun - 03:53:16 10° NNW 03:57:30 20° NNE 04:01:31 10° ENE visible
05 Jun - 05:36:30 10° NNW 05:42:08 54° NE 05:47:12 10° ESE daylight
05 Jun - 07:20:17 10° NW 07:25:08 31° WSW 07:29:29 10° S daylight
05 Jun - 20:21:34 10° SSE 20:25:49 20° ESE 20:30:12 10° ENE daylight
05 Jun - 22:02:03 10° SSW 22:08:28 84° SE 22:14:41 10° NE visible
05 Jun - 23:46:52 10° W 23:52:28 31° NW 23:57:46 10° NNE visible
